FW5317 Weather Reports


Display with metric or nautical units.
time (UTC)temp
F
wind
direction
speed
MPH
gust
MPH
rain 1hr
in
rain 24hr
in
rain mn
in
humidity
%
barometer
mb
20260906110020 69 115 5.0 8.0 0.00 0.00 0.00 98 1015.8
20260906104521 69 134 4.0 9.0 0.00 0.00 0.00 98 1015.8
20260906103019 69 109 6.0 8.0 0.00 0.00 0.00 98 1015.8
20260906101521 68 116 5.0 9.0 0.00 0.00 0.00 99 1015.8
20260906100021 66 154 0.0 0.0 0.00 0.00 0.00 97 1015.9
20260906094516 66 154 0.0 0.0 0.00 0.00 0.00 96 1015.8
20260906093037 67 154 0.0 0.0 0.00 0.00 0.00 97 1015.4
20260906091511 68 154 0.0 1.0 0.00 0.00 0.00 96 1015.5
20260906090013 68 123 1.0 4.0 0.00 0.00 0.00 96 1014.8
20260906084511 69 108 2.0 4.0 0.00 0.00 0.00 96 1014.8
20260906083011 69 119 2.0 6.0 0.00 0.00 0.00 96 1014.9
20260906081505 69 107 1.0 7.0 0.00 0.00 0.00 96 1014.8
20260906080004 69 117 3.0 8.0 0.00 0.00 0.00 96 1014.7
20260906074504 69 88 5.0 10.0 0.00 0.00 0.00 96 1014.6
20260906073100 70 115 2.0 7.0 0.00 0.00 0.00 96 1014.7
20260906071559 70 121 2.0 8.0 0.00 0.00 0.00 96 1015.0
20260906070057 70 113 3.0 7.0 0.00 0.00 0.00 96 1015.0
20260906064556 70 86 1.0 3.0 0.00 0.00 0.00 96 1015.2
20260906063056 70 46 0.0 2.0 0.00 0.00 0.00 96 1015.3
20260906061602 71 55 1.0 4.0 0.00 0.00 0.00 96 1015.4
20260906060051 71 109 1.0 3.0 0.00 0.00 0.00 96 1015.1
20260906054555 71 78 0.0 2.0 0.00 0.00 0.00 96 1015.1
20260906053103 72 74 0.0 1.0 0.00 0.00 0.00 95 1015.2
20260906051543 72 127 1.0 3.0 0.00 0.00 0.00 95 1014.8
20260906050040 72 121 2.0 4.0 0.00 0.00 0.00 95 1014.7
20260906044539 72 125 2.0 7.0 0.00 0.00 0.00 95 1014.7
20260906043038 73 111 4.0 7.0 0.00 0.00 0.00 95 1014.7
20260906041547 73 88 2.0 4.0 0.00 0.00 0.00 95 1014.8
20260906040037 73 105 0.0 3.0 0.00 0.00 0.00 95 1014.8
20260906034542 73 109 1.0 4.0 0.00 0.00 0.00 94 1014.6
20260906033036 73 54 1.0 4.0 0.00 0.00 0.00 95 1014.6
20260906031539 73 44 0.0 2.0 0.00 0.00 0.00 94 1014.6
20260906030039 73 37 2.0 3.0 0.00 0.00 0.00 95 1014.4
20260906024533 73 56 1.0 3.0 0.00 0.00 0.00 95 1014.4
20260906023032 73 69 0.0 2.0 0.00 0.00 0.00 94 1014.1
20260906021530 73 70 0.0 3.0 0.00 0.00 0.00 94 1014.0
20260906020029 74 71 1.0 3.0 0.00 0.00 0.00 93 1013.7
20260906014541 75 73 0.0 2.0 0.00 0.00 0.00 93 1013.3
20260906013028 75 75 0.0 3.0 0.00 0.00 0.00 93 1013.4
20260906011527 76 57 2.0 6.0 0.00 0.00 0.00 92 1013.3
20260906010053 76 74 3.0 6.0 0.00 0.00 0.00 92 1013.0
20260906004526 77 96 2.0 5.0 0.00 0.00 0.00 90 1013.0
20260906003025 78 104 2.0 5.0 0.00 0.00 0.00 90 1012.8
20260906001536 79 78 2.0 7.0 0.00 0.00 0.00 89 1012.8
20260906000024 80 62 3.0 8.0 0.00 0.00 0.00 88 1012.8
20260905234523 81 48 3.0 6.0 0.00 0.00 0.00 87 1012.7
20260905233022 81 76 2.0 6.0 0.00 0.00 0.00 87 1012.4
20260905231535 82 96 3.0 7.0 0.00 0.00 0.00 85 1012.6
20260905230021 83 46 3.0 8.0 0.00 0.00 0.00 83 1012.5
20260905224524 84 52 3.0 9.0 0.00 0.00 0.00 83 1012.5
20260905223030 84 75 4.0 8.0 0.00 0.00 0.00 82 1012.4
20260905221519 84 92 6.0 12.0 0.00 0.00 0.00 82 1012.1
20260905220025 85 101 5.0 13.0 0.00 0.00 0.00 81 1011.8
20260905214519 85 112 8.0 15.0 0.00 0.00 0.00 80 1011.5
20260905213020 86 80 6.0 11.0 0.00 0.00 0.00 81 1011.4
20260905211534 86 87 7.0 14.0 0.00 0.00 0.00 80 1011.6
20260905210016 86 97 6.0 12.0 0.00 0.00 0.00 80 1011.5
20260905204524 86 61 5.0 11.0 0.00 0.00 0.00 80 1012.0
20260905203033 86 94 3.0 11.0 0.00 0.00 0.00 82 1012.3
20260905201523 86 80 3.0 10.0 0.00 0.00 0.00 81 1012.6
20260905200014 85 79 7.0 13.0 0.00 0.00 0.00 82 1012.8
20260905194513 86 81 5.0 11.0 0.00 0.00 0.00 80 1013.0
20260905193020 86 36 5.0 13.0 0.00 0.00 0.00 82 1012.9
20260905191523 86 29 7.0 12.0 0.00 0.00 0.00 80 1013.4
20260905190012 86 28 6.0 13.0 0.00 0.00 0.00 82 1013.4
20260905184512 87 48 6.0 10.0 0.00 0.00 0.00 79 1013.5
20260905183010 86 5 3.0 11.0 0.00 0.00 0.00 80 1013.5
20260905181508 87 51 8.0 11.0 0.00 0.00 0.00 79 1013.6
20260905180006 86 19 4.0 9.0 0.00 0.00 0.00 81 1013.9
20260905174505 85 34 1.0 6.0 0.00 0.00 0.00 81 1014.1
20260905173001 85 89 1.0 6.0 0.00 0.00 0.00 83 1013.9
20260905171602 84 72 3.0 9.0 0.00 0.00 0.00 83 1013.9
20260905170107 84 70 3.0 8.0 0.00 0.00 0.00 83 1013.7
20260905164604 84 22 3.0 10.0 0.00 0.00 0.00 83 1013.8
20260905163055 83 76 4.0 9.0 0.00 0.00 0.00 84 1014.0
20260905161554 83 84 3.0 11.0 0.00 0.00 0.00 84 1013.9
20260905160053 83 52 5.0 9.0 0.00 0.00 0.00 83 1013.9
20260905154551 83 32 2.0 6.0 0.00 0.00 0.00 83 1013.8
20260905153048 82 55 3.0 7.0 0.00 0.00 0.00 84 1013.7
20260905151549 81 61 3.0 10.0 0.00 0.00 0.00 87 1013.5
20260905150048 80 36 3.0 9.0 0.00 0.00 0.00 88 1013.3
20260905144540 79 32 3.0 6.0 0.00 0.00 0.00 90 1013.2
20260905143036 78 45 3.0 6.0 0.00 0.00 0.00 92 1013.0
20260905141532 76 59 3.0 6.0 0.00 0.00 0.00 94 1012.9
20260905140029 75 49 2.0 4.0 0.00 0.00 0.00 97 1012.9
20260905134528 74 46 2.0 5.0 0.00 0.00 0.00 98 1013.2
20260905133019 73 44 0.0 4.0 0.00 0.00 0.00 99 1012.8
20260905131517 72 34 2.0 3.0 0.00 0.00 0.00 99 1012.4
20260905130018 71 348 0.0 1.0 0.00 0.00 0.00 99 1012.3
20260905124517 71 360 0.0 2.0 0.00 0.00 0.00 99 1012.2
20260905123014 70 360 0.0 2.0 0.00 0.00 0.00 99 1012.1
20260905121512 70 360 0.0 0.0 0.00 0.00 0.00 99 1011.8
20260905120010 70 360 0.0 0.0 0.00 0.00 0.00 98 1011.5
20260905114510 70 360 0.0 1.0 0.00 0.00 0.00 98 1011.7
20260905113008 70 360 0.0 2.0 0.00 0.00 0.00 98 1011.4
20260905111507 70 40 0.0 1.0 0.00 0.00 0.00 98 1011.3